When you browse on this site, cookies collect data to enhance your experience and personalize the content and advertising you see.
Visit our Privacy Policy to learn more. By continuing to use the site, you agree to this use of cookies and data.
  • In Sweden
  • List of Countries
  • For 7 days
  • Water Temperature
  • Weather Map
  • Weather Widgets
  • user-avatar
    Login

    Hourly Weather Guadalajara

    Today, 25 February, Tuesday

    Time Temperature Precipitation Wind Pressure Humidity
    00:00 +19°C° 0 mm 1 mps 631 mmHg 49%
    01:00 +18°C° 0 mm 1 mps 631 mmHg 52%
    02:00 +15°C° 0 mm 0 mps 630 mmHg 55%
    03:00 +15°C° 0 mm 0 mps 630 mmHg 57%
    04:00 +15°C° 0 mm 0 mps 630 mmHg 58%
    05:00 +15°C° 0 mm 1 mps 630 mmHg 58%
    06:00 +18°C° 0 mm 1 mps 631 mmHg 54%
    07:00 +19°C° 0 mm 1 mps 632 mmHg 50%
    08:00 +19°C° 0 mm 0 mps 633 mmHg 46%
    09:00 +23°C° 0 mm 1 mps 633 mmHg 39%
    10:00 +25°C° 0 mm 2 mps 634 mmHg 32%
    11:00 +28°C° 0 mm 3 mps 634 mmHg 25%
    12:00 +28°C° 0 mm 3 mps 634 mmHg 23%
    13:00 +29°C° 0 mm 4 mps 634 mmHg 20%
    14:00 +30°C° 0 mm 4 mps 633 mmHg 18%
    15:00 +29°C° 0 mm 4 mps 633 mmHg 18%
    16:00 +28°C° 0 mm 4 mps 632 mmHg 19%
    17:00 +27°C° 0 mm 3 mps 632 mmHg 19%
    18:00 +25°C° 0 mm 3 mps 632 mmHg 23%
    19:00 +23°C° 0 mm 2 mps 632 mmHg 26%
    20:00 +21°C° 0 mm 1 mps 632 mmHg 30%
    21:00 +20°C° 0 mm 1 mps 632 mmHg 32%
    22:00 +19°C° 0 mm 1 mps 632 mmHg 34%
    23:00 +18°C° 0 mm 1 mps 631 mmHg 36%

    Tomorrow, 26 February, Wednesday

    Time Temperature Precipitation Wind Pressure Humidity
    00:00 +16°C° 0 mm 1 mps 631 mmHg 39%
    01:00 +15°C° 0 mm 0 mps 631 mmHg 42%
    02:00 +14°C° 0 mm 0 mps 631 mmHg 45%
    03:00 +14°C° 0 mm 0 mps 631 mmHg 47%
    04:00 +13°C° 0 mm 0 mps 630 mmHg 49%
    05:00 +13°C° 0 mm 0 mps 630 mmHg 51%
    06:00 +14°C° 0 mm 0 mps 631 mmHg 48%
    07:00 +16°C° 0 mm 0 mps 632 mmHg 44%
    08:00 +17°C° 0 mm 0 mps 633 mmHg 40%
    09:00 +21°C° 0 mm 0 mps 634 mmHg 34%
    10:00 +24°C° 0 mm 0 mps 635 mmHg 28%
    11:00 +27°C° 0 mm 0 mps 636 mmHg 22%
    12:00 +28°C° 0 mm 0 mps 635 mmHg 21%
    13:00 +29°C° 0 mm 0 mps 635 mmHg 19%
    14:00 +32°C° 0 mm 1 mps 634 mmHg 17%
    15:00 +30°C° 0 mm 1 mps 634 mmHg 18%
    16:00 +29°C° 0 mm 1 mps 633 mmHg 19%
    17:00 +28°C° 0 mm 1 mps 633 mmHg 20%
    18:00 +26°C° 0 mm 1 mps 633 mmHg 24%
    19:00 +24°C° 0 mm 1 mps 633 mmHg 27%
    20:00 +22°C° 0 mm 1 mps 634 mmHg 31%
    21:00 +21°C° 0 mm 1 mps 634 mmHg 37%
    22:00 +20°C° 0 mm 1 mps 634 mmHg 43%
    23:00 +19°C° 0 mm 1 mps 634 mmHg 50%

    Day after tomorrow, 27 February, Thursday

    Time Temperature Precipitation Wind Pressure Humidity
    00:00 +18°C° 0 mm 1 mps 634 mmHg 52%
    01:00 +16°C° 0 mm 1 mps 634 mmHg 54%
    02:00 +16°C° 0 mm 1 mps 633 mmHg 56%
    03:00 +15°C° 0 mm 1 mps 633 mmHg 57%
    04:00 +14°C° 0 mm 1 mps 633 mmHg 59%
    05:00 +14°C° 0 mm 1 mps 633 mmHg 60%
    06:00 +14°C° 0 mm 2 mps 634 mmHg 56%
    07:00 +15°C° 0 mm 2 mps 634 mmHg 53%
    08:00 +16°C° 0 mm 2 mps 635 mmHg 49%
    09:00 +18°C° 0 mm 2 mps 636 mmHg 44%
    10:00 +21°C° 0 mm 2 mps 636 mmHg 38%
    11:00 +25°C° 0 mm 2 mps 637 mmHg 32%
    12:00 +27°C° 0 mm 1 mps 637 mmHg 29%
    13:00 +29°C° 0 mm 1 mps 637 mmHg 26%
    14:00 +31°C° 0 mm 1 mps 637 mmHg 23%
    15:00 +29°C° 0 mm 1 mps 636 mmHg 24%
    16:00 +28°C° 0 mm 1 mps 636 mmHg 25%
    17:00 +27°C° 0 mm 1 mps 635 mmHg 27%
    18:00 +25°C° 0 mm 1 mps 635 mmHg 31%
    19:00 +23°C° 0 mm 1 mps 635 mmHg 35%
    20:00 +21°C° 0 mm 1 mps 635 mmHg 39%
    21:00 +20°C° 0 mm 1 mps 635 mmHg 45%
    22:00 +19°C° 0 mm 1 mps 635 mmHg 50%
    23:00 +18°C° 0 mm 1 mps 635 mmHg 55%

    28 February, Friday

    Time Temperature Precipitation Wind Pressure Humidity
    00:00 +18°C° 0 mm 1 mps 635 mmHg 62%
    01:00 +16°C° 0 mm 1 mps 634 mmHg 68%
    02:00 +14°C° 0 mm 0 mps 634 mmHg 75%
    03:00 +14°C° 0 mm 0 mps 634 mmHg 78%
    04:00 +13°C° 0 mm 0 mps 634 mmHg 81%
    05:00 +13°C° 0 mm 0 mps 634 mmHg 83%
    06:00 +15°C° 0 mm 0 mps 635 mmHg 75%
    07:00 +16°C° 0 mm 0 mps 636 mmHg 67%
    08:00 +20°C° 0 mm 1 mps 637 mmHg 58%
    09:00 +24°C° 0 mm 1 mps 638 mmHg 48%
    10:00 +25°C° 0 mm 0 mps 639 mmHg 38%
    11:00 +29°C° 0 mm 0 mps 640 mmHg 28%
    12:00 +29°C° 0 mm 0 mps 639 mmHg 25%
    13:00 +30°C° 0 mm 0 mps 638 mmHg 22%
    14:00 +31°C° 0 mm 0 mps 638 mmHg 19%
    15:00 +31°C° 0 mm 1 mps 637 mmHg 20%
    16:00 +30°C° 0 mm 1 mps 637 mmHg 21%
    17:00 +29°C° 0 mm 1 mps 636 mmHg 22%
    18:00 +27°C° 0 mm 1 mps 636 mmHg 26%
    19:00 +25°C° 0 mm 1 mps 636 mmHg 30%
    20:00 +20°C° 0 mm 0 mps 636 mmHg 34%
    21:00 +22°C° 0 mm 1 mps 636 mmHg 39%
    22:00 +21°C° 0 mm 1 mps 636 mmHg 43%
    23:00 +20°C° 0 mm 1 mps 636 mmHg 48%

    29 February, Saturday

    Time Temperature Precipitation Wind Pressure Humidity
    00:00 +19°C° 0 mm 1 mps 636 mmHg 53%
    01:00 +16°C° 0 mm 0 mps 635 mmHg 58%
    02:00 +15°C° 0 mm 0 mps 635 mmHg 62%
    03:00 +15°C° 0 mm 0 mps 635 mmHg 62%
    04:00 +15°C° 0 mm 0 mps 635 mmHg 63%
    05:00 +15°C° 0 mm 1 mps 635 mmHg 63%
    06:00 +18°C° 0 mm 1 mps 635 mmHg 57%
    07:00 +19°C° 0 mm 1 mps 636 mmHg 51%
    08:00 +20°C° 0 mm 1 mps 637 mmHg 45%
    09:00 +24°C° 0 mm 1 mps 638 mmHg 39%
    10:00 +25°C° 0 mm 0 mps 639 mmHg 32%
    11:00 +29°C° 0 mm 0 mps 640 mmHg 26%
    12:00 +30°C° 0 mm 0 mps 639 mmHg 25%
    13:00 +32°C° 0 mm 1 mps 638 mmHg 23%
    14:00 +33°C° 0 mm 1 mps 637 mmHg 22%
    15:00 +32°C° 0 mm 2 mps 637 mmHg 23%
    16:00 +31°C° 0 mm 2 mps 636 mmHg 24%
    17:00 +30°C° 0 mm 2 mps 636 mmHg 25%
    18:00 +27°C° 0 mm 2 mps 636 mmHg 28%
    19:00 +25°C° 0 mm 2 mps 636 mmHg 32%
    20:00 +23°C° 0 mm 1 mps 636 mmHg 36%
    21:00 +22°C° 0 mm 1 mps 635 mmHg 40%
    22:00 +21°C° 0 mm 1 mps 635 mmHg 45%
    23:00 +20°C° 0 mm 1 mps 635 mmHg 50%

    1 March, Sunday

    Time Temperature Precipitation Wind Pressure Humidity
    00:00 +19°C° 0 mm 1 mps 634 mmHg 54%
    01:00 +18°C° 0 mm 1 mps 634 mmHg 58%
    02:00 +16°C° 0 mm 1 mps 633 mmHg 62%
    03:00 +16°C° 0 mm 1 mps 633 mmHg 64%
    04:00 +14°C° 0 mm 0 mps 633 mmHg 66%
    05:00 +14°C° 0 mm 0 mps 633 mmHg 68%
    06:00 +16°C° 0 mm 0 mps 634 mmHg 61%
    07:00 +18°C° 0 mm 0 mps 635 mmHg 54%
    08:00 +20°C° 0 mm 0 mps 636 mmHg 47%
    09:00 +23°C° 0 mm 0 mps 637 mmHg 38%
    10:00 +28°C° 0 mm 1 mps 637 mmHg 29%
    11:00 +31°C° 0 mm 1 mps 638 mmHg 21%
    12:00 +32°C° 0 mm 2 mps 637 mmHg 19%
    13:00 +32°C° 0 mm 2 mps 636 mmHg 17%
    14:00 +34°C° 0 mm 2 mps 635 mmHg 15%
    15:00 +32°C° 0 mm 2 mps 635 mmHg 16%
    16:00 +31°C° 0 mm 2 mps 635 mmHg 17%
    17:00 +31°C° 0 mm 2 mps 635 mmHg 18%
    18:00 +28°C° 0 mm 2 mps 635 mmHg 23%
    19:00 +26°C° 0 mm 2 mps 634 mmHg 28%
    20:00 +23°C° 0 mm 2 mps 634 mmHg 33%
    21:00 +22°C° 0 mm 1 mps 634 mmHg 37%
    22:00 +21°C° 0 mm 1 mps 634 mmHg 41%
    23:00 +20°C° 0 mm 1 mps 634 mmHg 45%
    Show more